Regional Weather Roundup
Issued by NWS

Home | Current Version | Previous Version | Graphics & Text | Print | Product List | Glossary On
Versions: 1 2 3 4 5 6 7 8 9 10 11 12 13 14 15 16 17 18 19 20 21 22 23 24 25 26 27 28
000
ASUS45 KBOI 251310
RWRID

IDAHO REGIONAL WEATHER ROUNDUP
NATIONAL WEATHER SERVICE BOISE ID
700 AM MDT MON SEP 25 2017

NOTE: "FAIR" INDICATES FEW OR NO CLOUDS BELOW 12000 FEET
WITH NO SIGNIFICANT WEATHER AND/OR OBSTRUCTIONS TO VISIBILITY

IDZ012-014-251400-
SOUTHWEST IDAHO


CITY           SKY/WX    TMP DP  RH WIND       PRES   REMARKS
BOISE          CLEAR     42  33  70 SE8       30.09R
CALDWELL       CLEAR     41  37  86 CALM      30.10R
MOUNTAIN HOME  CLEAR     38  36  91 CALM      30.10R
$$

IDZ016-017-251400-
SOUTHCENTRAL IDAHO


CITY           SKY/WX    TMP DP  RH WIND       PRES   REMARKS
BURLEY         PTCLDY    35  29  78 SW6       30.10R WCI  30
JEROME         PTCLDY    38  33  82 SE5       30.11R WCI  34
TWIN FALLS     PTCLDY    41  33  73 S12       30.11R
$$

IDZ019>023-251400-
SOUTHEAST IDAHO


CITY           SKY/WX    TMP DP  RH WIND       PRES   REMARKS
IDAHO FALLS    CLEAR     33  30  88 W3        30.13R
POCATELLO      PTCLDY    35  33  92 NW8       30.13R WCI  29
REXBURG        CLEAR     32  29  88 W3        30.13R
$$

IDZ006-010-011-018-031-032-251400-
CENTRAL IDAHO MOUNTAINS


CITY           SKY/WX    TMP DP  RH WIND       PRES   REMARKS
MCCALL         CLEAR     33  31  92 CALM      30.11S
HAILEY         MOCLDY    36  28  75 NW10      30.14S WCI  28
STANLEY          N/A     24  21  88 CALM      30.18R
SALMON         CLOUDY    41  37  86 CALM      30.14R
CHALLIS        CLOUDY    32  30  92 CALM      30.16R
$$

IDZ002-004-006-007-026-251400-
NORTHERN IDAHO


CITY           SKY/WX    TMP DP  RH WIND       PRES   REMARKS
LEWISTON       CLOUDY    54  45  71 E12       30.08S
LOWELL           N/A     45  42  89 CALM      30.16S
COEUR D`ALENE  PTCLDY    51  45  79 S6        30.08R
MULLAN PASS    CLOUDY    39  35  86 VRB3      30.11S
$$




USA.gov is the U.S. government's official web portal to all federal, state and local government web resources and services.